Location: Newark
(42.7133°N, 87.7910°W)
Time: 19:09:06
(UTC+00:00)

Vanguard 1 - Pass Details

Date: 29 September 2019
Orbit: 653 x 3830 km, 34.2° (Epoch: 20 October)

Event Time Altitude Azimuth Distance (km) Brightness Sun altitude
Rises 12:12:32 0° 284° (WNW) 7,934 14.0 4.0°
Reaches altitude 10° 12:19:07 10° 276° (W) 6,718 13.7 5.2°
Maximum altitude 12:35:41 31° 224° (SW) 4,148 13.0 8.2°
Drops below altitude 10° 12:46:54 10° 168° (SSE) 4,511 13.8 10.2°
Sets 12:50:19 0° 158° (SSE) 5,103 14.3 10.9°
